Tracking 23752 objects as of 23-Oct-2021
HD Live streaming from Space Station
objects crossing your sky now

DELTA 1 DEB

Track DELTA 1 DEB now!
10-day predictions


NORAD ID: 10251
Int'l Code: 1977-065CC
Perigee: 465.8 km
Apogee: 1,523.9 km
Inclination: 29.0 °
Period: 104.9 minutes
Semi major axis: 7365 km
RCS: 0.0179 m2 (small)
Launch date: July 14, 1977
Source: United States (US)
Launch site: AIR FORCE EASTERN TEST RANGE (AFETR)

Note: This is SATELLITE DEBRIS
aabbcc
Your satellite tracking list
Your tracking list is empty




NASA's NSSDC Master Catalog

Two Line Element Set (TLE):
1 10251U 77065CC  21295.45309032  .00000441  00000-0  47711-4 0  9992
2 10251  28.9741 317.3690 0718214 104.7415 263.3799 13.73306927182625
Source of the keplerian elements: AFSPC